Winthrop, MA

1:25 PM EST on January 24, 2017 (GMT -0500)
Logan International

Weather History for KBOS - October, 2010

Change the Weather History Date:

Sunday, October 3, 2010

  Actual Average Record
Temperature  
Mean Temperature 53 °F 58 °F  
Max Temperature 59 °F 66 °F 85 °F (1922)
Min Temperature 47 °F 51 °F 35 °F (1899)
Degree Days  
Heating Degree Days 12 7  
Month to date heating degree days 18 21  
Since 1 July heating degree days 52 118  
Cooling Degree Days 0 1  
Month to date cooling degree days 6 3  
Year to date cooling degree days 1075 743  
Growing Degree Days 2 (Base 50)    
Moisture  
Dew Point 42 °F    
Average Humidity 66    
Maximum Humidity 77    
Minimum Humidity 55    
Precipitation  
Precipitation 0.00 in 0.12 in 1.48 in (1961)
Month to date precipitation 0.35 0.38  
Year to date precipitation 39.54 32.44  
Snow  
Snow 0.00 in 0.00 in 0.00 in (2009)
Month to date snowfall 0.0 0.0  
Since 1 July snowfall 0.0 0.0  
Since 1 September snowfall 0.0 0.0  
Snow Depth 0.00 in    
Sea Level Pressure  
Sea Level Pressure 30.17 in    
Wind  
Wind Speed 14 mph (NNE)    
Max Wind Speed 24 mph    
Max Gust Speed 31 mph    
Visibility 10 miles    
Events      
T = Trace of Precipitation, MM = Missing Value Source: NWS Daily Summary

Daily Weather History Graph

Daily Weather History Graph

Search for Another Location

Airport or City:

Trip Planner

Search our weather history database for the weather conditions in past years. The results will help you decide how hot, cold, wet, or windy it might be!

Date:

Astronomy

Oct. 03, 2010 Rise Set
Actual Time 6:43 AM EDT 6:22 PM EDT
Civil Twilight 6:15 AM EDT 6:50 PM EDT
Nautical Twilight 5:42 AM EDT 7:22 PM EDT
Astronomical Twilight 5:09 AM EDT 7:55 PM EDT
Moon 1:29 AM EDT (10/3) 3:49 PM EDT (10/3)
Length of Visible Light 12h 34m
Length of Day
11h 38m
Waning Crescent, 23% of the Moon is Illuminated
Oct 3
Waning Crescent
Oct 7
New
Oct 14
First Quarter
Oct 22
Full
Oct 30
Last Quarter

Hourly Weather History & Observations

Time (EDT) Temp. Dew Point Humidity Pressure Visibility Wind Dir Wind Speed Gust Speed Precip Events Conditions
12:54 AM 51.1 °F 37.9 °F 61% 30.10 in 10.0 mi NNW 9.2 mph - N/A   Clear
1:54 AM 50.0 °F 39.0 °F 66% 30.12 in 10.0 mi North 9.2 mph - N/A   Clear
2:54 AM 48.9 °F 39.9 °F 71% 30.12 in 10.0 mi North 9.2 mph - N/A   Partly Cloudy
3:54 AM 48.9 °F 41.0 °F 74% 30.12 in 10.0 mi North 8.1 mph - N/A   Partly Cloudy
4:54 AM 48.0 °F 39.9 °F 74% 30.14 in 10.0 mi NNW 6.9 mph - N/A   Partly Cloudy
5:54 AM 48.0 °F 41.0 °F 77% 30.14 in 10.0 mi North 8.1 mph - N/A   Partly Cloudy
6:54 AM 48.0 °F 41.0 °F 77% 30.15 in 10.0 mi North 10.4 mph - N/A   Scattered Clouds
7:54 AM 48.9 °F 39.9 °F 71% 30.17 in 10.0 mi North 10.4 mph - N/A   Scattered Clouds
8:54 AM 53.1 °F 42.1 °F 66% 30.19 in 10.0 mi North 12.7 mph - N/A   Mostly Cloudy
9:54 AM 54.0 °F 43.0 °F 66% 30.21 in 10.0 mi North 13.8 mph - N/A   Mostly Cloudy
10:54 AM 55.9 °F 45.0 °F 67% 30.21 in 10.0 mi NNE 12.7 mph - N/A   Mostly Cloudy
11:54 AM 57.0 °F 45.0 °F 64% 30.21 in 10.0 mi NE 12.7 mph - N/A   Overcast
12:54 PM 55.9 °F 44.1 °F 64% 30.21 in 10.0 mi NE 13.8 mph - N/A   Overcast
1:54 PM 57.0 °F 44.1 °F 62% 30.19 in 10.0 mi NNE 17.3 mph - N/A   Overcast
2:54 PM 57.0 °F 43.0 °F 59% 30.18 in 10.0 mi NNE 17.3 mph - N/A   Mostly Cloudy
3:54 PM 57.0 °F 44.1 °F 62% 30.17 in 10.0 mi NE 17.3 mph - N/A   Mostly Cloudy
4:54 PM 57.0 °F 42.1 °F 57% 30.17 in 10.0 mi NNE 17.3 mph - N/A   Mostly Cloudy
5:54 PM 55.9 °F 39.9 °F 55% 30.18 in 10.0 mi NE 20.7 mph 26.5 mph N/A   Mostly Cloudy
6:54 PM 55.0 °F 42.1 °F 62% 30.19 in 10.0 mi NNE 12.7 mph - N/A   Overcast
7:54 PM 55.0 °F 43.0 °F 64% 30.18 in 10.0 mi NE 15.0 mph 23.0 mph N/A   Mostly Cloudy
8:54 PM 55.0 °F 44.1 °F 67% 30.19 in 10.0 mi NE 12.7 mph - N/A   Mostly Cloudy
9:54 PM 55.9 °F 44.1 °F 64% 30.21 in 10.0 mi NE 12.7 mph - N/A   Overcast
10:54 PM 55.9 °F 44.1 °F 64% 30.21 in 10.0 mi NE 17.3 mph 23.0 mph N/A   Overcast
11:54 PM 57.0 °F 44.1 °F 62% 30.21 in 10.0 mi NE 17.3 mph 27.6 mph N/A   Mostly Cloudy